AirNav   ProFlight Series 2 Aviation Headset
 
 1062 users online  

46PA UPMC St Margaret Heliport
Pittsburgh, Pennsylvania, USA

GOING TO PITTSBURGH?


FAA INFORMATION EFFECTIVE 18 JUNE 2020

Location

FAA Identifier: 46PA
Lat/Long: 40-29-19.0300N 079-53-43.3800W
40-29.317167N 079-53.723000W
40.4886194,-79.8953833
(estimated)
Elevation: 761 ft. / 232 m (estimated)
Variation: 08W (1990)
From city: 1 mile NE of PITTSBURGH, PA
Time zone: UTC -4 (UTC -5 during Standard Time)
Zip code: 15215

Heliport Operations

Heliport use: Private use, MEDICAL USE.
Activation date: 12/1991
Control tower: no
ARTCC: CLEVELAND CENTER
FSS: ALTOONA FLIGHT SERVICE STATION
Attendance: CONTINUOUS
Wind indicator: lighted
Segmented circle: no
Lights: SS-SR

Heliport Communications

WX AWOS-A at 42PN (5 nm W): PHONE 412-442-2213
WX ASOS at AGC (8 nm S): 120.55 (412-466-8968)
WX ASOS at PIT (15 nm W): PHONE 412-472-0145
WX AWOS-3 at FWQ (17 nm S): 118.475 (724-379-5815)
WX AWOS-3PT at BTP (17 nm N): 121.450 (724-586-6434)

Nearby radio navigation aids

VOR radial/distance  VOR name  Freq  Var
AGCr037/14.2ALLEGHENY VOR/DME110.0009W
EWCr153/24.8ELLWOOD CITY VOR/DME115.8008W
HLGr073/33.7WHEELING VOR/DME112.2007W
IHDr327/39.5INDIAN HEAD VORTAC108.2006W

 
NDB name  Hdg/Dist  Freq  Var  ID
CASTLE153/39.827209WUCP ..- -.-. .--.

Heliport Services

Runway Information

Helipad H1

Dimensions: 65 x 65 ft. / 20 x 20 m
Surface: concrete, in good condition
Runway edge lights: PERI
Latitude: 40-29.317167N
Longitude: 079-53.723000W
Elevation: 761.0 ft.
Traffic pattern: leftleft

Heliport Ownership and Management from official FAA records

Ownership: Privately-owned
Owner: UPMC ST MARGARET
815 FREEPORT RD
PITTSBURGH, PA 15215
Phone (412) 784-4000
Manager: DAVID PATTON
UPMC ST MARGARET, 815 FREEPORT RD
PITTSBURGH, PA 15215
Phone (412) 784-5216

Additional Remarks

020 DEG APCH/200 DEG DEPARTURE ROUTE; 110 DEG APCH/290 DEG DEPARTURE ROUTE (BENT APCH).
FOR CD CTC PITTSBURGH APCH AT 412-472-5591

Instrument Procedures

There are no published instrument procedures at 46PA.

Some nearby airports with instrument procedures:

KAGC - Allegheny County Airport (8 nm S)
KPIT - Pittsburgh International Airport (15 nm W)
G05 - Finleyville Airpark (16 nm S)
KFWQ - Rostraver Airport (17 nm S)
KBTP - Pittsburgh/Butler Regional Airport (17 nm N)
 
Loc | Ops | Rwys | IFR | FBO | Links
Com | Nav | Svcs | Stats | Notes
Area around 46PA (UPMC St Margaret Heliport)
 
Road maps at: MapQuest Bing Google
 
Aerial photo
No photo
 
Sectional chart

 
Airport distance calculator
Flying to UPMC St Margaret Heliport? Find the distance to fly.

From to 46PA

Sunrise and sunset
Times for 06-Jul-2020
 Local
(UTC-4)
 Zulu
(UTC)
Morning civil twilight05:2409:24
Sunrise05:5709:57
Sunset20:5200:52
Evening civil twilight21:2401:24

Current date and time
Zulu (UTC)  06-Jul-2020 23:55:32
Local (UTC-4)  06-Jul-2020 19:55:32
 
METAR
KAGC 
8nm S 
062253Z 10SM FEW080 33/15 A2999 RMK AO2 SLP147 T03280150
KBTP 
17nm N 
062256Z AUTO VRB04KT 10SM CLR 32/16 A3002 RMK AO2 SLP160 T03170161 PNO $
KPIT 
17nm W 
062251Z 32010KT 10SM FEW050 SCT250 33/13 A3000 RMK AO2 SLP154 T03330128
KP53 
17nm S 
062256Z AUTO 14006G15KT 21/19 A2995 RMK AO1 SLP140 P0008 T02060189
TAF
KAGC 
8nm S 
061737Z 0618/0718 26004KT P6SM SCT250 FM070000 00000KT P6SM SKC FM071700 20004KT P6SM SCT100
KPIT 
17nm W 
062057Z 0621/0724 30010KT P6SM SCT250 FM070000 00000KT P6SM SKC FM072000 20003KT P6SM SCT050 PROB30 0720/0724 P6SM -TSRA BKN050CB
NOTAMs
Click for the latest NOTAMs
NOTAMs are issued by the DoD/FAA and will open in a separate window not controlled by AirNav.

 

 
 

Would you like to see your business listed on this page?

 If your business provides an interesting product or service to pilots, flight crews, aircraft, or users of the UPMC St Margaret Heliport, you should consider listing it here.  To start the listing process, click on the button below
 
Add a business
 

Other Pages about UPMC St Margaret Heliport

Update a link
 
Copyright © AirNav, LLC. All rights reserved. Privacy Policy  Contact